weather.gov     
National Weather Service

Regional Weather Roundup
NWS Homepage
This page is being discontinued on March 12, 2014.
The same data is available at this site. Please update your bookmarks.
Thank you, and we apologize for the inconvenience.
Please send an email to SR-SRH.Webmaster@noaa.gov with any concerns.


Current Version
Previous Version:    01  02  03  04  05  06  07  08  09  10  11  12  13  14  15  16  17  18  19  20  21  22  23  24  25  26  27  
[Printable]
226
ASUS45 KBOU 010807
RWRCO

WEATHER ROUNDUP FOR COLORADO
NATIONAL WEATHER SERVICE DENVER/BOULDER CO
200 AM MDT WED OCT 01 2014

NOTE: "FAIR" INDICATES FEW OR NO CLOUDS BELOW 12000 FEET WITH NO
SIGNIFICANT WEATHER AND/OR OBSTRUCTIONS TO VISIBILITY.

COZ001>005-013-030-031-010900-
...NORTHWEST COLORADO...

CITY           SKY/WX    TMP DP  RH WIND       PRES   REMARKS
CRAIG          CLOUDY    44  42  93 CALM      29.99S
HAYDEN         CLOUDY    43  39  87 CALM      30.00S
MEEKER         MOCLDY    43  39  86 NE6       29.98F
MOUNT WERNER   NOT AVBL
STEAMBOAT SPGS CLOUDY    40  40  97 E5        30.00F
WALDEN         CLOUDY    37  34  87 S13       30.01R
$$

COZ006>008-011-010900-
...WEST CENTRAL VALLEYS...

CITY           SKY/WX    TMP DP  RH WIND       PRES   REMARKS
GRAND JUNCTION PTCLDY    49  42  77 SE10      29.91F
MONTROSE       PTCLDY    45  39  79 S6        29.98F
EAGLE          CLOUDY    43  43 100 NE6       30.04F
RIFLE          MOCLDY    44  40  85 E3        29.97S
DELTA          PTCLDY    49  42  78 E7        29.96S
NUCLA          DRIZZLE   46  43  87 NW5       30.01S
$$

COZ017>023-064>068-010900-
...SOUTHWEST COLORADO...

CITY           SKY/WX    TMP DP  RH WIND       PRES   REMARKS
DURANGO        PTCLDY    38  37  97 CALM      30.02S
CORTEZ         CLEAR     40  38  93 SE3       29.98S
PAGOSA SPRINGS PTCLDY    37  36  99 CALM      30.07S
TELLURIDE      CLOUDY   N/A N/A N/A SE6       30.10S
WOLF CREEK PAS PTCLDY    28  27  93 W9        30.21S WCI  20
$$

COZ009-010-012-014-032>034-037-058>063-010900-
...CENTRAL COLORADO...

CITY           SKY/WX    TMP DP  RH WIND       PRES   REMARKS
ASPEN          MOCLDY    37  33  85 SW3       30.04S
BUENA VISTA    CLEAR     33  29  87 W5        30.04S WCI  28
COPPER MTN     PTCLDY    32  25  74 W16G23    30.15F WCI  21
BERTHOUD PASS  CLOUDY    23  21  93 NW17G29   30.16R WCI   9
COTTONWOOD PAS CLEAR     39  30  70 N5        30.09F
GUNNISON       CLEAR     36  30  80 CALM      30.08S
KREMMLING      CLOUDY    41  36  81 CALM      30.04S
LEADVILLE      CLEAR     32  26  78 N5        30.09S WCI  27
SALIDA         CLEAR     45  33  63 NW6       30.09S
SUNLIGHT       PTCLDY    34  34 100 CALM      30.13F
WILKERSON PASS NOT AVBL
$$

COZ069>075-010900-
...SAN LUIS VALLEY/SANGRE DE CRISTO MOUNTAINS...

CITY           SKY/WX    TMP DP  RH WIND       PRES   REMARKS
ALAMOSA        PTCLDY    36  32  85 NW7       30.04F
LA VETA PASS   CLEAR     34  30  86 SW7       30.10S WCI  28
SAGUACHE       CLEAR     36  32  87 N7        30.07S
$$

COZ035-036-038>040-010900-
...NORTHERN COLORADO FRONT RANGE...

CITY           SKY/WX    TMP DP  RH WIND       PRES   REMARKS
DENVER INTL AP MOCLDY    51  36  56 SW6       29.88S
DMNS CITY PARK   N/A     49  39  67 SE5       29.87F
AURORA         PTCLDY    46  37  73 SW5       29.90S
FRONT RANGE AP CLEAR     52  37  58 SW6       29.89S
ERIE MUNI ARPT PTCLDY    48  38  67 CALM      29.87S
BOULDER MUN AP PTCLDY    50  37  62 W5        29.87R
CENTENNIAL     CLEAR     45  35  68 SE6       29.90S
BROOMFIELD     PTCLDY    52  34  50 W7        29.89S
FORT COLLINS   CLEAR     48  39  71 SE7       29.89R
LONGMONT       CLEAR     49  40  69 CALM      29.88S
$$

COZ041-046-047-076>085-087-088-010900-
...PIKES PEAK/PALMER DIVIDE AND SOUTHERN FOOTHILLS...

CITY           SKY/WX    TMP DP  RH WIND       PRES   REMARKS
COLO. SPRINGS  CLEAR     51  32  48 W5        29.93S
A. F. ACADEMY  PTCLDY    53  28  38 NW9       29.94S
ELLICOTT       NOT AVBL
FALCON         CLEAR     45  30  54 NW7       29.96S
FORT CARSON    CLEAR     46  34  62 NW6       29.90S
LIMON          CLEAR     45  39  79 N5        29.90R
MONUMENT HILL  CLEAR     41  30  65 SW7       29.95S
TRINIDAD       CLEAR     48  34  58 W10       29.91S
$$

COZ042>045-048>051-090-091-010900-
...NORTHEAST COLORADO...

CITY           SKY/WX    TMP DP  RH WIND       PRES   REMARKS
GREELEY ARPT   CLEAR     46  39  76 CALM      29.87R
AKRON          PTCLDY    49  42  77 NW10      29.86R
BURLINGTON     MOCLDY    57  44  62 W8        29.83R
WRAY           MOCLDY    52  47  84 W3        29.81S
STERLING       CLEAR     52  45  76 W5        29.83R
HOLYOKE        PTCLDY    59  50  72 W5        29.81S
FORT MORGAN    CLEAR     51  40  65 N9        29.86R
$$

COZ086-089-092>099-010900-
...SOUTHEAST COLORADO...

CITY           SKY/WX    TMP DP  RH WIND       PRES   REMARKS
PUEBLO         CLEAR     51  35  54 W6        29.86S
LA JUNTA       CLEAR     52  38  58 W12       29.82R
LAMAR          CLEAR     49  46  90 NW5       29.79R
SPRINGFIELD      N/A     47  39  74 W7        29.83R
$$




U.S. Dept. of Commerce
NOAA National Weather Service
1325 East West Highway
Silver Spring, MD 20910
E-mail: w-nws.webmaster@noaa.gov
Page last modified: May 16, 2007
NATIONAL WEATHER SERVICE: for Safety, for Work, for Fun - FOR LIFE